^^
NorthLandsweather Station Historical Data
 
Daily Summary for February 17, 2020 Units:  English    Metric   Both
Daily Weekly Monthly Yearly Custom
  Current: High: Low: Average:
Temperature: 26.5 °F 26.5 °F 12.2 °F 18.9 °F
Dew Point: 14.1 °F 14.3 °F 4.6 °F 8.9 °F
Humidity: 59% 73% 57% 65%
Wind Speed: 3.5mph 8.1mph 0mph 0.6mph
Wind Gust: 1.5mph 3.2mph - -
WindSE - - SE
Pressure: 30.07 in 30.18 in 30.07 in -
Precipitation: 0 in      
Historical Graphs
 
 
Tabular Data for February 17, 2020
Time Temperature Dew Point Pressure Wind Wind Speed Wind Gust Humidity Rainfall Rate (Hourly) solar
00:00 14 °F 5.7 °F 30.18 in Calm     69% 0 in 0.00 W/m2
00:05 14.1 °F 5.8 °F 30.18 in Calm     69% 0 in 0.00 W/m2
00:10 13.9 °F 5.6 °F 30.18 in Calm     69% 0 in 0.00 W/m2
00:15 13.6 °F 5.6 °F 30.18 in Calm     70% 0 in 0.00 W/m2
00:20 13.4 °F 5.4 °F 30.18 in Calm     70% 0 in 0.00 W/m2
00:25 13.3 °F 5.6 °F 30.18 in Calm     71% 0 in 0.00 W/m2
00:30 13 °F 5 °F 30.18 in Calm     70% 0 in 0.00 W/m2
00:35 13 °F 5.4 °F 30.18 in Calm     71% 0 in 0.00 W/m2
00:40 12.9 °F 5 °F 30.18 in Calm     70% 0 in 0.00 W/m2
00:45 12.6 °F 5 °F 30.18 in Calm     71% 0 in 0.00 W/m2
00:50 12.3 °F 4.7 °F 30.18 in Calm     71% 0 in 0.00 W/m2
00:55 12.2 °F 4.6 °F 30.18 in Calm     71% 0 in 0.00 W/m2
01:00 12.5 °F 4.9 °F 30.18 in Calm     71% 0 in 0.00 W/m2
01:05 12.9 °F 5.6 °F 30.18 in Calm     72% 0 in 0.00 W/m2
01:10 13.4 °F 5.4 °F 30.18 in Calm     70% 0 in 0.00 W/m2
01:15 13.6 °F 5.9 °F 30.17 in Calm     71% 0 in 0.00 W/m2
01:20 13.8 °F 6.1 °F 30.17 in Calm     71% 0 in 0.00 W/m2
01:25 14.2 °F 6.5 °F 30.17 in Calm     71% 0 in 0.00 W/m2
01:30 14.1 °F 6.4 °F 30.17 in Calm     71% 0 in 0.00 W/m2
01:35 13.7 °F 6 °F 30.17 in Calm     71% 0 in 0.00 W/m2
01:40 13.5 °F 5.8 °F 30.17 in Calm     71% 0 in 0.00 W/m2
01:45 13.7 °F 6.3 °F 30.17 in Calm     72% 0 in 0.00 W/m2
01:50 14.1 °F 6.7 °F 30.17 in Calm     72% 0 in 0.00 W/m2
01:55 14.8 °F 7.1 °F 30.17 in Calm     71% 0 in 0.00 W/m2
02:00 15.4 °F 7.4 °F 30.17 in Calm     70% 0 in 0.00 W/m2
02:05 15.2 °F 6.8 °F 30.17 in Calm     69% 0 in 0.00 W/m2
02:10 14.6 °F 6.6 °F 30.16 in Calm     70% 0 in 0.00 W/m2
02:15 14.4 °F 5.8 °F 30.16 in Calm     68% 0 in 0.00 W/m2
02:20 14.3 °F 6.3 °F 30.16 in Calm     70% 0 in 0.00 W/m2
02:25 14.5 °F 6.8 °F 30.16 in Calm     71% 0 in 0.00 W/m2
02:30 14.8 °F 7.4 °F 30.16 in Calm     72% 0 in 0.00 W/m2
02:35 15.2 °F 8.1 °F 30.16 in Calm     73% 0 in 0.00 W/m2
02:40 15.3 °F 7.9 °F 30.16 in Calm     72% 0 in 0.00 W/m2
02:45 15.4 °F 8 °F 30.15 in Calm     72% 0 in 0.00 W/m2
02:50 15.6 °F 8.2 °F 30.15 in Calm     72% 0 in 0.00 W/m2
02:55 16 °F 8.3 °F 30.15 in Calm     71% 0 in 0.00 W/m2
03:00 16.5 °F 9 °F 30.15 in Calm     72% 0 in 0.00 W/m2
03:05 17 °F 9.2 °F 30.15 in Calm     71% 0 in 0.00 W/m2
03:10 17.6 °F 9.2 °F 30.14 in Calm     69% 0 in 0.00 W/m2
03:15 18.2 °F 9.7 °F 30.14 in Calm     69% 0 in 0.00 W/m2
03:20 18.4 °F 9.6 °F 30.14 in Calm     68% 0 in 0.00 W/m2
03:25 18.2 °F 9.4 °F 30.14 in Calm     68% 0 in 0.00 W/m2
03:30 18.2 °F 9.4 °F 30.14 in Calm     68% 0 in 0.00 W/m2
03:35 18.1 °F 9 °F 30.14 in Calm     67% 0 in 0.00 W/m2
03:40 18.2 °F 9.1 °F 30.14 in Calm     67% 0 in 0.00 W/m2
03:45 18.2 °F 9.7 °F 30.13 in Calm     69% 0 in 0.00 W/m2
03:50 18.1 °F 9.6 °F 30.13 in Calm     69% 0 in 0.00 W/m2
03:55 18.1 °F 9.3 °F 30.13 in Calm     68% 0 in 0.00 W/m2
04:00 18.3 °F 9.2 °F 30.13 in Calm     67% 0 in 0.00 W/m2
04:05 18.4 °F 9.6 °F 30.14 in Calm     68% 0 in 0.00 W/m2
04:10 18.6 °F 9.5 °F 30.13 in Calm     67% 0 in 0.00 W/m2
04:15 18.7 °F 9.9 °F 30.13 in Calm     68% 0 in 0.00 W/m2
04:20 18.8 °F 10.3 °F 30.13 in Calm     69% 0 in 0.00 W/m2
04:25 19 °F 10.2 °F 30.13 in Calm     68% 0 in 0.00 W/m2
04:30 19 °F 9.5 °F 30.12 in Calm     66% 0 in 0.00 W/m2
04:35 19.1 °F 9.9 °F 30.12 in Calm     67% 0 in 0.00 W/m2
04:40 19.1 °F 9.9 °F 30.12 in Calm     67% 0 in 0.00 W/m2
04:45 19.1 °F 9.6 °F 30.12 in Calm     66% 0 in 0.00 W/m2
04:50 19.2 °F 9.7 °F 30.12 in Calm     66% 0 in 0.00 W/m2
04:55 19.3 °F 9.4 °F 30.12 in Calm     65% 0 in 0.00 W/m2
05:00 19.3 °F 9.4 °F 30.11 in Calm     65% 0 in 0.00 W/m2
05:05 19.4 °F 9.2 °F 30.12 in Calm     64% 0 in 0.00 W/m2
05:10 19.5 °F 8.9 °F 30.12 in Calm     63% 0 in 0.00 W/m2
05:15 19.6 °F 9 °F 30.12 in Calm     63% 0 in 0.00 W/m2
05:20 19.7 °F 8.8 °F 30.12 in Calm     62% 0 in 0.00 W/m2
05:25 19.8 °F 8.5 °F 30.12 in Calm     61% 0 in 0.00 W/m2
05:30 19.9 °F 9.3 °F 30.12 in Calm     63% 0 in 0.00 W/m2
05:35 20 °F 8.7 °F 30.12 in Calm     61% 0 in 0.00 W/m2
05:40 20.2 °F 8.9 °F 30.11 in Calm     61% 0 in 0.00 W/m2
05:45 20.3 °F 8.2 °F 30.12 in Calm     59% 0 in 0.00 W/m2
05:50 20.4 °F 9.1 °F 30.11 in Calm     61% 0 in 0.00 W/m2
05:55 20.5 °F 8.4 °F 30.11 in Calm     59% 0 in 0.00 W/m2
06:00 20.7 °F 8.6 °F 30.11 in Calm     59% 0 in 0.00 W/m2
06:05 20.8 °F 8.3 °F 30.11 in Calm     58% 0 in 0.00 W/m2
06:10 21 °F 8.5 °F 30.11 in Calm     58% 0 in 0.00 W/m2
06:15 21.1 °F 8.2 °F 30.11 in Calm     57% 0 in 0.00 W/m2
06:20 21.2 °F 8.3 °F 30.11 in Calm     57% 0 in 0.00 W/m2
06:25 21.3 °F 8.4 °F 30.10 in Calm     57% 0 in 0.00 W/m2
06:30 21.4 °F 8.5 °F 30.10 in Calm     57% 0 in 0.00 W/m2
06:35 21.4 °F 8.9 °F 30.10 in Calm     58% 0 in 0.00 W/m2
06:40 21.5 °F 8.6 °F 30.10 in Calm     57% 0 in 0.00 W/m2
06:45 21.5 °F 9 °F 30.10 in Calm     58% 0 in 0.00 W/m2
06:50 21.6 °F 9.5 °F 30.10 in Calm     59% 0 in 0.00 W/m2
06:55 21.7 °F 9.2 °F 30.09 in ESE 1.2 mph 0.1 mph 58% 0 in 0.00 W/m2
07:00 21.8 °F 8.9 °F 30.09 in SE 4.6 mph 1.7 mph 57% 0 in 0.00 W/m2
07:05 22 °F 9.5 °F 30.09 in Calm     58% 0 in 59.30 W/m2
07:10 22.1 °F 9.6 °F 30.09 in ESE 3.5 mph 0.5 mph 58% 0 in 104.70 W/m2
07:15 22.4 °F 10.2 °F 30.09 in ESE 1.2 mph 0.1 mph 59% 0 in 124.90 W/m2
07:20 22.6 °F 10.4 °F 30.09 in Calm     59% 0 in 133.00 W/m2
07:25 22.8 °F 10.6 °F 30.09 in Calm     59% 0 in 156.20 W/m2
07:30 23 °F 10.4 °F 30.09 in ESE 2.3 mph 0.1 mph 58% 0 in 171.40 W/m2
07:35 23.2 °F 10.6 °F 30.09 in SE 2.3 mph 0.1 mph 58% 0 in 179.50 W/m2
07:40 23.4 °F 11.2 °F 30.08 in South 1.2 mph 0.1 mph 59% 0 in 179.50 W/m2
07:45 23.6 °F 11.4 °F 30.08 in SE 2.3 mph 0.4 mph 59% 0 in 183.50 W/m2
07:50 23.7 °F 11.4 °F 30.08 in Calm     59% 0 in 183.50 W/m2
07:55 23.9 °F 11.6 °F 30.08 in SE 3.5 mph 0.5 mph 59% 0 in 185.50 W/m2
08:00 23.9 °F 12 °F 30.09 in Calm     60% 0 in 200.70 W/m2
08:05 24 °F 12.1 °F 30.09 in South 1.2 mph   60% 0 in 201.70 W/m2
08:10 24.1 °F 12.6 °F 30.09 in SSE 8.1 mph 1.5 mph 61% 0 in 204.70 W/m2
08:15 24.3 °F 12.4 °F 30.09 in Calm     60% 0 in 217.80 W/m2
08:20 24.5 °F 13 °F 30.09 in ENE 1.2 mph 0.1 mph 61% 0 in 233.00 W/m2
08:25 24.7 °F 13.5 °F 30.09 in Calm     62% 0 in 243.10 W/m2
08:30 24.9 °F 13.3 °F 30.08 in SE 3 mph 0.2 mph 61% 0 in 238.10 W/m2
08:35 25.2 °F 13.6 °F 30.08 in South 3 mph 0.4 mph 61% 0 in 246.10 W/m2
08:40 25.5 °F 13.5 °F 30.08 in SSE 3.5 mph 2 mph 60% 0 in 245.10 W/m2
08:45 25.7 °F 13.7 °F 30.08 in ESE 5 mph 1.1 mph 60% 0 in 248.20 W/m2
08:50 25.9 °F 13.9 °F 30.08 in ENE 3.5 mph 1.5 mph 60% 0 in 245.10 W/m2
08:55 26 °F 14 °F 30.08 in SE 4.6 mph 2.6 mph 60% 0 in 245.10 W/m2
09:00 26.1 °F 13.7 °F 30.07 in ESE 5.8 mph 3.2 mph 59% 0 in 249.20 W/m2
09:05 26.1 °F 13.7 °F 30.07 in SE 3.5 mph 1 mph 59% 0 in 246.10 W/m2
09:10 26.3 °F 14.3 °F 30.08 in Calm     60% 0 in 249.20 W/m2
09:15 26.5 °F 14.1 °F 30.07 in SE 3.5 mph 1.5 mph 59% 0 in 253.20 W/m2
Winter, Wisconsin USA
Compliments of Weather Underground - 2 mb